Showing default

COSMOS 2269, 23000

Orbit data source: Space-Track

COSMOS 2269, 23000 is a payload satellite owned by VKS (CIS) in LEO that was launched on Sat, 12 Feb 1994 UTC via a TSIKLON-3 launch vehicle from the Plesetsk Missile And Space Complex (PKMTR). Payload-class satellites include a variety of spacecraft equipped with specific instruments for various scientific and technological missions. These include communications satellites like Starlink; space stations such as the ISS; scientific satellites like the Hubble; Earth observation satellites from companies like Planet Labs, Umbra, and HawkEye 360; GPS; miniature CubeSats for education and research; and military/defense satellites.

Loading next visibility...
Identifier
23000, 1994-011B
Orbit
LEO
Country
Flag of CISCIS
Related business
Manufacturer
NPO PM
Mission
Defense Communications
Bus & Motor
STRELA-3, Unknown motor
Mass
225 kg wet, 225 kg dry
Launch date (UTC)
1994-02-12 (32 years ago)
Launch vehicle
TSIKLON-3
Launch site
Plesetsk Missile And Space Complex (PKMTR)
Object type
Payload
Rocket body
Debris
Shape & HBR
Cyl, 0.8 m
Radar Cross Section
1.257 m², Large (>1 m²)

Expand to show TLE details & history
Last TLE update: 13 hours ago

TLE from 13 hours ago
0 COSMOS 2269
1 23000U 94011B   25352.48672882  .00000020  00000-0  52540-4 0  9994
2 23000  82.5684  76.5101 0006423 232.9071 137.9690 12.61938261466885
Epoch: 2025-12-18T11:40Z
TLE epoch observation values (Epoch: 2025-12-18T11:40:53.370Z)
Latitude
10.78573°
Longitude
175.36304°
Altitude
1,420.657 km
Speed
7.15 km/s
True Right ascension
05h 11m 42s
True Declination
10° 43' 41"
Sunlit
Object was in full shadow at epoch
Visualization orbit readout
Latitude
Unknown
Longitude
Unknown
Altitude
Unknown
Speed
Unknown
Apparent Right ascension
Unknown
Apparent Declination
Unknown
Sunlit
N/A
Visualization observer readout
Local Sidereal Time
23:56:02
Azimuth
Unknown
Elevation
Unknown
Doppler factor
Unknown
Orbital elements
Apogee altitude
1,417.28 km
Perigee altitude
1,407.272 km
Semi-major axis
7,790.413 km
Eccentricity
0.00064
Inclination
82.5684°
RAAN
76.5101°
Arg. of periapsis
232.9071°
True anomaly
138.01825°
Mean anomaly
137.969°
Eccentric anomaly
137.99363°
Mean motion
3.15648 °/min
Orbital period
114.05 mins
BSTAR
0.00005254
Loading maneuver chart data...
Computing Atmospheric mass density...
Loading historical data...
Loading historical data...
Loading historical data...
Loading historical data...
Loading historical data...
Loading historical data...
Loading historical data...

Documentation

Showing up to 5 results
|